TUI2TW LIML-EDDH

Flight info

Callsign TUI2TW
Flight time 1h 22m
Altitude 36000
Route PEPAG N851 UTAVO DCT ROLSA DCT LOKTA DCT TEDGO DCT HAREM DCT LOHRE DCT MASEK DCT ELNAT P605 NOLGO NOLGO6A
Aircraft B738/M-SDE2E3FGHIRWXY/LB1

Departure

Time 2026-02-19 13:55
Airport Milano Linate Airport (LIML)

Arrival

Time 2026-02-19 15:17
Airport Hamburg Helmut Schmidt Airport (EDDH)
Time Latitude Longitude Altitude Speed Heading
2026-02-19 13:21 45.45692 9.27876 365 ft 0 kts 91°
2026-02-19 13:49 45.45692 9.27881 362 ft 2 kts 91°
2026-02-19 13:49 45.45691 9.27947 366 ft 9 kts 94°
2026-02-19 13:49 45.45671 9.27979 366 ft 5 kts 156°
2026-02-19 13:49 45.45591 9.27980 363 ft 16 kts 180°
2026-02-19 13:50 45.45480 9.27976 363 ft 16 kts 178°
2026-02-19 13:50 45.45371 9.27969 360 ft 15 kts 201°
2026-02-19 13:50 45.45277 9.27900 364 ft 16 kts 204°
2026-02-19 13:50 45.45148 9.27875 360 ft 20 kts 175°
2026-02-19 13:51 45.44997 9.27890 358 ft 25 kts 176°
2026-02-19 13:51 45.44833 9.27942 363 ft 23 kts 175°
2026-02-19 13:51 45.44674 9.27958 356 ft 22 kts 175°
2026-02-19 13:51 45.44521 9.27976 356 ft 22 kts 175°
2026-02-19 13:52 45.44349 9.27994 358 ft 27 kts 176°
2026-02-19 13:52 45.43976 9.28035 354 ft 25 kts 176°
2026-02-19 13:52 45.43851 9.28048 350 ft 29 kts 176°
2026-02-19 13:53 45.43641 9.28071 351 ft 29 kts 175°
2026-02-19 13:53 45.43488 9.28083 348 ft 14 kts 191°
2026-02-19 13:53 45.43447 9.27985 348 ft 2 kts 269°
2026-02-19 13:53 45.43446 9.27975 348 ft 0 kts 267°
2026-02-19 13:54 45.43446 9.27966 348 ft 5 kts 266°
2026-02-19 13:54 45.43443 9.27900 351 ft 10 kts 269°
2026-02-19 13:54 45.43514 9.27817 349 ft 18 kts 353°
2026-02-19 13:55 45.43774 9.27788 352 ft 72 kts 355°
2026-02-19 13:55 45.44527 9.27704 356 ft 141 kts 355°
2026-02-19 13:55 45.45627 9.27579 784 ft 163 kts 352°
2026-02-19 13:55 45.46741 9.27292 1659 ft 160 kts 334°
2026-02-19 13:56 45.47775 9.26728 2574 ft 164 kts 338°
2026-02-19 13:56 45.50346 9.25461 3250 ft 223 kts 339°
2026-02-19 13:56 45.51852 9.24729 3873 ft 231 kts 339°
2026-02-19 13:57 45.53375 9.23980 4639 ft 235 kts 339°
2026-02-19 13:57 45.54930 9.23221 5491 ft 235 kts 342°
2026-02-19 13:57 45.56563 9.23064 6298 ft 240 kts
2026-02-19 13:57 45.58221 9.22968 7254 ft 237 kts 342°
2026-02-19 13:58 45.59763 9.22263 8280 ft 235 kts 342°
2026-02-19 13:58 45.61354 9.21601 9249 ft 236 kts 343°
2026-02-19 13:58 45.62946 9.20973 10156 ft 237 kts 343°
2026-02-19 13:58 45.64535 9.20360 10963 ft 242 kts 343°
2026-02-19 13:59 45.66248 9.19703 11311 ft 267 kts 343°
2026-02-19 13:59 45.68111 9.18992 11535 ft 293 kts 343°
2026-02-19 13:59 45.70174 9.18207 11747 ft 318 kts 344°
2026-02-19 13:59 45.72373 9.17372 12211 ft 327 kts 344°
2026-02-19 14:00 45.74556 9.16543 12623 ft 333 kts 343°
2026-02-19 14:00 45.79097 9.14815 14165 ft 341 kts 344°
2026-02-19 14:00 45.81429 9.13926 14797 ft 349 kts 344°
2026-02-19 14:01 45.83785 9.13027 15355 ft 357 kts 344°
2026-02-19 14:01 45.86200 9.12089 16108 ft 360 kts 344°
2026-02-19 14:01 45.88634 9.11097 16783 ft 365 kts 343°
2026-02-19 14:01 45.91078 9.10088 17449 ft 370 kts 343°
2026-02-19 14:02 45.93587 9.09056 18129 ft 374 kts 343°
2026-02-19 14:02 45.96117 9.08018 18702 ft 379 kts 343°
2026-02-19 14:02 45.98647 9.07003 19274 ft 384 kts 346°
2026-02-19 14:02 46.01306 9.06370 19847 ft 389 kts 353°
2026-02-19 14:03 46.04036 9.06002 20304 ft 397 kts 354°
2026-02-19 14:03 46.06776 9.05680 20880 ft 400 kts 354°
2026-02-19 14:03 46.09579 9.05309 21450 ft 404 kts 353°
2026-02-19 14:03 46.12375 9.04888 21982 ft 408 kts 353°
2026-02-19 14:04 46.20981 9.03593 23467 ft 422 kts 354°
2026-02-19 14:04 46.23904 9.03208 23840 ft 427 kts 353°
2026-02-19 14:05 46.26888 9.02817 24252 ft 431 kts 354°
2026-02-19 14:05 46.29868 9.02422 24688 ft 434 kts 353°
2026-02-19 14:05 46.32907 9.02013 25079 ft 438 kts 353°
2026-02-19 14:05 46.35961 9.01599 25441 ft 442 kts 354°
2026-02-19 14:06 46.39018 9.01183 25886 ft 444 kts 354°
2026-02-19 14:06 46.42116 9.00762 26212 ft 449 kts 353°
2026-02-19 14:06 46.45270 9.00337 26529 ft 454 kts 354°
2026-02-19 14:06 46.48298 8.99930 26975 ft 455 kts 354°
2026-02-19 14:07 46.51482 8.99502 27290 ft 460 kts 354°
2026-02-19 14:07 46.54659 8.99073 27595 ft 464 kts 353°
2026-02-19 14:07 46.57892 8.98639 28069 ft 464 kts 353°
2026-02-19 14:07 46.61130 8.98201 28422 ft 466 kts 353°
2026-02-19 14:08 46.64347 8.97766 28719 ft 471 kts 354°
2026-02-19 14:08 46.70912 8.96876 29468 ft 474 kts 354°
2026-02-19 14:08 46.74221 8.96426 29848 ft 475 kts 354°
2026-02-19 14:09 46.77489 8.95981 30295 ft 473 kts 353°
2026-02-19 14:09 46.80778 8.95533 30725 ft 472 kts 353°
2026-02-19 14:09 46.84062 8.95085 31008 ft 474 kts 353°
2026-02-19 14:09 46.87303 8.94642 31458 ft 471 kts 352°
2026-02-19 14:10 46.90594 8.94191 31878 ft 470 kts 352°
2026-02-19 14:10 46.93816 8.93752 32261 ft 469 kts 352°
2026-02-19 14:10 46.97075 8.93307 32697 ft 468 kts 353°
2026-02-19 14:10 47.00330 8.92862 32906 ft 471 kts 352°
2026-02-19 14:11 47.03601 8.92412 33319 ft 469 kts 352°
2026-02-19 14:11 47.06826 8.91968 33793 ft 466 kts 352°
2026-02-19 14:11 47.10035 8.91526 34097 ft 466 kts 352°
2026-02-19 14:11 47.13282 8.91077 34377 ft 465 kts 352°
2026-02-19 14:12 47.16479 8.90634 34677 ft 465 kts 352°
2026-02-19 14:12 47.22929 8.89742 35320 ft 462 kts 352°
2026-02-19 14:12 47.26106 8.89304 35609 ft 462 kts 352°
2026-02-19 14:13 47.32572 8.89849 35677 ft 474 kts
2026-02-19 14:13 47.39043 8.92053 35777 ft 476 kts 11°
2026-02-19 14:14 47.42225 8.93175 36077 ft 474 kts 11°
2026-02-19 14:14 47.45436 8.94291 36453 ft 470 kts 10°
2026-02-19 14:14 47.48624 8.95381 36795 ft 468 kts 10°
2026-02-19 14:14 47.51792 8.96448 37099 ft 467 kts 10°
2026-02-19 14:15 47.54929 8.97495 37336 ft 467 kts
2026-02-19 14:15 47.58106 8.98551 37550 ft 467 kts
2026-02-19 14:15 47.61296 8.99611 37674 ft 468 kts
2026-02-19 14:15 47.64495 9.00676 37662 ft 470 kts
2026-02-19 14:16 47.74032 9.03866 37658 ft 467 kts
2026-02-19 14:17 47.80335 9.05983 37658 ft 465 kts
2026-02-19 14:17 47.86657 9.08112 37665 ft 463 kts 10°
2026-02-19 14:18 47.92942 9.10233 37659 ft 463 kts 10°
2026-02-19 14:18 47.99199 9.12349 37654 ft 463 kts 10°
2026-02-19 14:19 48.05504 9.14488 37651 ft 464 kts 10°
2026-02-19 14:19 48.11788 9.16624 37655 ft 465 kts 10°
2026-02-19 14:20 48.24546 9.19811 37649 ft 464 kts
2026-02-19 14:21 48.30956 9.20740 37649 ft 465 kts
2026-02-19 14:21 48.37443 9.21771 37639 ft 466 kts
2026-02-19 14:22 48.43857 9.22851 37635 ft 467 kts
2026-02-19 14:22 48.50344 9.23955 37643 ft 467 kts
2026-02-19 14:23 48.56781 9.25047 37634 ft 467 kts
2026-02-19 14:23 48.63206 9.26133 37636 ft 466 kts
2026-02-19 14:24 48.69662 9.27129 37640 ft 465 kts
2026-02-19 14:24 48.79329 9.28576 37640 ft 464 kts
2026-02-19 14:25 48.85727 9.29550 37636 ft 464 kts
2026-02-19 14:25 48.92143 9.30534 37643 ft 463 kts
2026-02-19 14:26 48.98530 9.31518 37647 ft 463 kts
2026-02-19 14:26 49.04919 9.32505 37648 ft 462 kts
2026-02-19 14:27 49.11343 9.33499 37664 ft 462 kts
2026-02-19 14:27 49.17713 9.34487 37674 ft 462 kts
2026-02-19 14:28 49.27304 9.35980 37679 ft 462 kts
2026-02-19 14:29 49.33718 9.36982 37684 ft 462 kts
2026-02-19 14:29 49.40105 9.37982 37688 ft 462 kts
2026-02-19 14:30 49.46486 9.38984 37699 ft 463 kts
2026-02-19 14:30 49.52933 9.39999 37694 ft 463 kts
2026-02-19 14:31 49.59326 9.41008 37716 ft 463 kts
2026-02-19 14:31 49.65717 9.42020 37709 ft 462 kts
2026-02-19 14:32 49.72108 9.43039 37721 ft 463 kts
2026-02-19 14:32 49.81703 9.44574 37724 ft 462 kts
2026-02-19 14:33 49.88115 9.45602 37719 ft 461 kts
2026-02-19 14:33 49.94483 9.46627 37720 ft 460 kts
2026-02-19 14:34 50.00836 9.47651 37724 ft 460 kts
2026-02-19 14:34 50.07188 9.48678 37736 ft 460 kts
2026-02-19 14:35 50.13552 9.49734 37727 ft 460 kts
2026-02-19 14:35 50.19924 9.50807 37728 ft 460 kts
2026-02-19 14:36 50.29471 9.52415 37741 ft 460 kts
2026-02-19 14:37 50.34777 9.53310 37746 ft 460 kts
2026-02-19 14:37 50.41183 9.54393 37734 ft 461 kts
2026-02-19 14:38 50.47526 9.55468 37740 ft 460 kts
2026-02-19 14:38 50.53900 9.56552 37753 ft 461 kts
2026-02-19 14:39 50.60274 9.57638 37768 ft 460 kts
2026-02-19 14:39 50.66636 9.58726 37765 ft 460 kts
2026-02-19 14:40 50.73027 9.59821 37782 ft 460 kts
2026-02-19 14:40 50.82568 9.61648 37771 ft 461 kts
2026-02-19 14:41 50.88919 9.62908 37772 ft 461 kts
2026-02-19 14:41 50.95264 9.64155 37797 ft 460 kts
2026-02-19 14:42 51.01639 9.65403 37793 ft 460 kts
2026-02-19 14:42 51.07967 9.66646 37802 ft 460 kts
2026-02-19 14:43 51.14346 9.67903 37803 ft 460 kts
2026-02-19 14:43 51.20682 9.69154 37817 ft 459 kts
2026-02-19 14:44 51.30191 9.70708 37811 ft 458 kts
2026-02-19 14:45 51.36521 9.71700 37807 ft 457 kts
2026-02-19 14:45 51.42840 9.72722 37823 ft 456 kts
2026-02-19 14:46 51.49141 9.73771 37814 ft 456 kts
2026-02-19 14:46 51.55452 9.74996 37816 ft 455 kts
2026-02-19 14:47 51.61700 9.76215 37822 ft 454 kts
2026-02-19 14:47 51.68001 9.77468 37849 ft 454 kts
2026-02-19 14:48 51.74260 9.78631 37846 ft 453 kts
2026-02-19 14:48 51.83649 9.80393 37850 ft 453 kts
2026-02-19 14:49 51.89897 9.81593 37874 ft 452 kts
2026-02-19 14:49 51.96136 9.82791 37853 ft 452 kts
2026-02-19 14:50 51.99291 9.83398 37710 ft 455 kts
2026-02-19 14:50 52.02404 9.83997 37417 ft 455 kts
2026-02-19 14:50 52.05521 9.84599 37149 ft 452 kts
2026-02-19 14:50 52.08655 9.85206 36886 ft 451 kts
2026-02-19 14:51 52.11794 9.85814 36633 ft 452 kts
2026-02-19 14:51 52.14879 9.86413 36340 ft 451 kts
2026-02-19 14:51 52.18004 9.87020 35726 ft 449 kts
2026-02-19 14:51 52.21112 9.87624 35086 ft 449 kts
2026-02-19 14:52 52.24228 9.88233 34431 ft 450 kts
2026-02-19 14:52 52.30365 9.90449 32920 ft 455 kts 15°
2026-02-19 14:52 52.33404 9.91871 32197 ft 455 kts 15°
2026-02-19 14:53 52.36465 9.93315 31459 ft 455 kts 13°
2026-02-19 14:53 52.39461 9.94702 30712 ft 450 kts 12°
2026-02-19 14:53 52.42494 9.96073 29972 ft 450 kts 13°
2026-02-19 14:53 52.45478 9.97401 29384 ft 445 kts 13°
2026-02-19 14:54 52.48467 9.98722 28807 ft 440 kts 12°
2026-02-19 14:54 52.51392 10.00018 28260 ft 435 kts 12°
2026-02-19 14:54 52.54226 10.01277 27455 ft 427 kts 12°
2026-02-19 14:54 52.57049 10.02536 26718 ft 418 kts 13°
2026-02-19 14:55 52.59842 10.03786 26026 ft 410 kts 13°
2026-02-19 14:55 52.62545 10.04996 25337 ft 402 kts 12°
2026-02-19 14:55 52.65229 10.06198 24705 ft 394 kts 12°
2026-02-19 14:55 52.67868 10.07380 24217 ft 392 kts 12°
2026-02-19 14:56 52.70502 10.08560 23736 ft 391 kts 12°
2026-02-19 14:56 52.75731 10.10911 22663 ft 390 kts 12°
2026-02-19 14:56 52.78375 10.11852 22107 ft 386 kts
2026-02-19 14:57 52.81054 10.12075 21591 ft 383 kts 359°
2026-02-19 14:57 52.83713 10.12138 21058 ft 381 kts 358°
2026-02-19 14:57 52.86324 10.12176 20534 ft 377 kts 358°
2026-02-19 14:57 52.88941 10.12220 20007 ft 369 kts 359°
2026-02-19 14:58 52.91464 10.12273 19502 ft 362 kts 358°
2026-02-19 14:58 52.93970 10.12338 19003 ft 355 kts 360°
2026-02-19 14:58 52.96440 10.12411 18512 ft 352 kts 360°
2026-02-19 14:58 52.98865 10.12484 18015 ft 352 kts 359°
2026-02-19 14:59 53.01323 10.12558 17468 ft 352 kts
2026-02-19 14:59 53.03788 10.12634 16927 ft 352 kts
2026-02-19 14:59 53.06212 10.12711 16394 ft 349 kts
2026-02-19 14:59 53.08645 10.12788 15868 ft 344 kts
2026-02-19 15:00 53.10997 10.12863 15367 ft 340 kts
2026-02-19 15:00 53.15670 10.13014 14464 ft 331 kts
2026-02-19 15:00 53.17976 10.13090 14026 ft 328 kts
2026-02-19 15:01 53.20235 10.13165 13563 ft 325 kts
2026-02-19 15:01 53.22464 10.13237 13073 ft 322 kts
2026-02-19 15:01 53.24709 10.13308 12580 ft 319 kts
2026-02-19 15:01 53.26897 10.13379 12101 ft 316 kts
2026-02-19 15:02 53.29102 10.13452 11632 ft 314 kts
2026-02-19 15:02 53.31262 10.13523 11167 ft 312 kts
2026-02-19 15:02 53.33439 10.13594 10754 ft 308 kts
2026-02-19 15:02 53.35544 10.13662 10351 ft 302 kts
2026-02-19 15:03 53.37605 10.13727 10089 ft 290 kts
2026-02-19 15:03 53.39597 10.13346 9658 ft 290 kts 343°
2026-02-19 15:03 53.41339 10.11648 9274 ft 290 kts 325°
2026-02-19 15:03 53.42871 10.09520 8885 ft 286 kts 323°
2026-02-19 15:04 53.44364 10.07355 8605 ft 281 kts 323°
2026-02-19 15:04 53.47281 10.03137 8014 ft 272 kts 323°
2026-02-19 15:04 53.48716 10.01083 7738 ft 268 kts 324°
2026-02-19 15:05 53.50129 9.99067 7473 ft 264 kts 324°
2026-02-19 15:05 53.51503 9.97111 7217 ft 260 kts 325°
2026-02-19 15:05 53.52878 9.95158 6958 ft 256 kts 325°
2026-02-19 15:05 53.54239 9.93222 6700 ft 254 kts 325°
2026-02-19 15:06 53.55580 9.91315 6464 ft 255 kts 326°
2026-02-19 15:06 53.56939 9.89384 6207 ft 257 kts 326°
2026-02-19 15:06 53.58408 9.87687 5932 ft 251 kts 340°
2026-02-19 15:06 53.59972 9.86418 5663 ft 250 kts 341°
2026-02-19 15:07 53.61514 9.85131 5401 ft 248 kts 340°
2026-02-19 15:07 53.63061 9.83811 5146 ft 246 kts 340°
2026-02-19 15:07 53.64594 9.82497 4885 ft 244 kts 340°
2026-02-19 15:07 53.66079 9.81210 4776 ft 239 kts 340°
2026-02-19 15:08 53.67543 9.79938 4663 ft 239 kts 340°
2026-02-19 15:08 53.70582 9.77301 4343 ft 249 kts 339°
2026-02-19 15:08 53.72103 9.75973 4133 ft 248 kts 339°
2026-02-19 15:09 53.73627 9.74640 3976 ft 245 kts 339°
2026-02-19 15:09 53.75143 9.73315 3755 ft 244 kts 339°
2026-02-19 15:09 53.76634 9.72012 3542 ft 243 kts 339°
2026-02-19 15:09 53.78138 9.70695 3330 ft 242 kts 339°
2026-02-19 15:10 53.79617 9.69400 3147 ft 238 kts 339°
2026-02-19 15:10 53.81119 9.68579 2988 ft 213 kts 11°
2026-02-19 15:10 53.82381 9.69427 3000 ft 189 kts 46°
2026-02-19 15:10 53.83264 9.70998 2991 ft 182 kts 63°
2026-02-19 15:11 53.83661 9.72965 2984 ft 176 kts 93°
2026-02-19 15:11 53.83432 9.74970 3006 ft 175 kts 103°
2026-02-19 15:11 53.83134 9.76981 2998 ft 175 kts 103°
2026-02-19 15:11 53.82821 9.78986 2987 ft 175 kts 105°
2026-02-19 15:12 53.82191 9.80715 2993 ft 178 kts 132°
2026-02-19 15:12 53.80369 9.83521 2983 ft 170 kts 132°
2026-02-19 15:12 53.79529 9.84815 2975 ft 157 kts 132°
2026-02-19 15:13 53.78689 9.85929 3002 ft 154 kts 141°
2026-02-19 15:13 53.77746 9.86841 2932 ft 157 kts 144°
2026-02-19 15:13 53.76777 9.87704 2721 ft 158 kts 145°
2026-02-19 15:13 53.75810 9.88545 2519 ft 153 kts 146°
2026-02-19 15:14 53.74903 9.89327 2296 ft 139 kts 145°
2026-02-19 15:14 53.74092 9.90027 2107 ft 128 kts 144°
2026-02-19 15:14 53.73310 9.90706 1937 ft 126 kts 144°
2026-02-19 15:14 53.72529 9.91384 1770 ft 126 kts 143°
2026-02-19 15:15 53.71753 9.92058 1581 ft 127 kts 144°
2026-02-19 15:15 53.70961 9.92743 1392 ft 128 kts 145°
2026-02-19 15:15 53.70159 9.93437 1199 ft 130 kts 145°
2026-02-19 15:15 53.69356 9.94133 1006 ft 133 kts 146°
2026-02-19 15:16 53.68517 9.94860 796 ft 137 kts 147°
2026-02-19 15:16 53.66723 9.96408 376 ft 148 kts 149°
2026-02-19 15:16 53.65822 9.97177 180 ft 146 kts 146°
2026-02-19 15:17 53.64926 9.97953 65 ft 136 kts 145°
2026-02-19 15:17 53.64196 9.98596 51 ft 98 kts 153°
2026-02-19 15:17 53.63635 9.99083 47 ft 70 kts 153°
2026-02-19 15:17 53.63341 9.99360 46 ft 36 kts 134°
2026-02-19 15:18 53.63282 9.99611 47 ft 8 kts 100°
2026-02-19 15:18 53.63281 9.99620 47 ft 0 kts 100°
2026-02-19 15:19 53.63280 9.99624 47 ft 2 kts 100°
2026-02-19 15:19 53.63273 9.99719 47 ft 14 kts 90°
2026-02-19 15:19 53.63306 9.99817 47 ft 15 kts 48°
2026-02-19 15:20 53.63372 9.99950 47 ft 14 kts 49°
2026-02-19 15:20 53.63399 10.00195 47 ft 13 kts 130°
2026-02-19 15:20 53.63310 10.00235 47 ft 15 kts 176°
2026-02-19 15:21 53.63202 10.00248 47 ft 16 kts 176°
2026-02-19 15:21 53.63112 10.00259 47 ft 9 kts 175°
2026-02-19 15:21 53.63082 10.00275 45 ft 5 kts 135°
2026-02-19 15:21 53.63075 10.00330 47 ft 5 kts 94°
2026-02-19 15:22 53.63074 10.00370 47 ft 0 kts 92°